Quillayute, WA
on Monday, November 5, 2012

Monday
Previous Day Next Day
Daily Summary
 ActualAverageRecord
Temperature
Mean Temperature °F 46°F  
Max Temperature 56°F 53°F 64°F (1987)
Min Temperature 41°F 40°F 23°F (1973)
Degree Days
Heating Degree Days 16 19  
Month to date heating degree days 93  
Since 1 July heating degree days 1183  
Cooling Degree Days 0 0  
Month to date cooling degree days 0  
Year to date cooling degree days 19  
Moisture
Dew Point 46°F   
Average Humidity 92    
Maximum Humidity 100    
Minimum Humidity 77    
Precipitation
Precipitation 0.00 in 0.50 in 2.59 in (1988)
Month to date precipitation 2.40  
Year to date precipitation 73.43  
Wind
Wind Speed 2 mph   
Max Wind Speed 7 mph   
Max Gust Speed 8 mph   
Visibility 2 miles   
Events Fog   

Key: T is trace of precipitation, MM is missing value
Source: NWS Daily Summary
Time(PST)TemperatureDew PointHumidity Pressure Visibility Wind DirectionWind SpeedGust SpeedPrecipitationEvents Conditions
12:00 AM 50.0°F 48.2°F 94% 30.34 in 0.8 miles Calm Calm - N/A   Scattered Clouds
12:53 AM 48.9°F 46.9°F 93% 30.35 in 0.5 miles Calm Calm - N/A Fog Fog
1:36 AM 48.2°F 46.4°F 93% 30.35 in 0.2 miles Calm Calm - N/A Fog Fog
1:53 AM 48.0°F 46.0°F 93% 30.36 in 0.5 miles Calm Calm - N/A Fog Fog
2:07 AM 48.2°F 46.4°F 93% 30.36 in 0.2 miles Calm Calm - N/A Fog Fog
2:19 AM 48.2°F 46.4°F 93% 30.37 in 0.2 miles Calm Calm - N/A Fog Fog
2:53 AM 46.9°F 46.9°F 100% 30.38 in 0.2 miles Calm Calm - N/A Fog Fog
3:11 AM 46.4°F 46.4°F 100% 30.37 in 0.2 miles Calm Calm - N/A Fog Fog
3:42 AM 44.6°F 44.6°F 100% 30.38 in 0.2 miles Calm Calm - N/A Fog Fog
3:53 AM 46.0°F 46.0°F 100% 30.38 in 0.5 miles Calm Calm - N/A Fog Fog
4:04 AM 46.4°F 46.4°F 100% 30.38 in 0.2 miles Calm Calm - N/A Fog Fog
4:53 AM 44.1°F 44.1°F 100% 30.39 in 0.2 miles Calm Calm - N/A Fog Fog
5:51 AM 41.0°F 39.2°F 93% 30.41 in 0.5 miles Calm Calm - N/A Fog Fog
5:53 AM 41.0°F 39.9°F 96% 30.41 in 0.2 miles Calm Calm - N/A Fog Fog
6:53 AM 41.0°F 41.0°F 100% 30.40 in 0.5 miles Calm Calm - N/A Fog Fog
7:04 AM 42.8°F 42.8°F 100% 30.40 in 0.2 miles Calm Calm - N/A Fog Fog
7:30 AM 42.8°F 42.8°F 100% 30.41 in 0.5 miles Calm Calm - N/A Fog Fog
7:35 AM 42.8°F 42.8°F 100% 30.41 in 0.2 miles Calm Calm - N/A Fog Fog
7:43 AM 42.8°F 42.8°F 100% 30.41 in 0.5 miles Calm Calm - N/A Fog Fog
7:53 AM 43.0°F 43.0°F 100% 30.41 in 0.5 miles Calm Calm - N/A Fog Fog
8:18 AM 44.6°F 44.6°F 100% 30.40 in 1.5 miles Calm Calm - N/A   Clear
8:24 AM 44.6°F 44.6°F 100% 30.40 in 3.0 miles Calm Calm - N/A   Clear
8:53 AM 46.9°F 46.9°F 100% 30.40 in 3.0 miles Calm Calm - N/A   Clear
9:53 AM 48.9°F 48.9°F 100% 30.40 in 4.0 miles Calm Calm - N/A   Clear
10:01 AM 50.0°F 48.2°F 94% 30.39 in 4.0 miles ESE 3.5 mph - N/A   Scattered Clouds
10:24 AM 50.0°F 48.2°F 94% 30.38 in 4.0 miles East 4.6 mph - N/A   Mostly Cloudy
10:48 AM 51.8°F 50.0°F 94% 30.38 in 4.0 miles East 3.5 mph - N/A   Scattered Clouds
10:53 AM 51.1°F 48.9°F 92% 30.38 in 4.0 miles Calm Calm - N/A   Partly Cloudy
11:53 AM 54.0°F 48.9°F 83% 30.39 in 3.0 miles NNE 3.5 mph - N/A   Haze
12:08 PM 55.4°F 48.2°F 77% 30.38 in 2.0 miles NNW 5.8 mph - N/A   Haze
12:27 PM 53.6°F 48.2°F 82% 30.36 in 1.5 miles NNE 4.6 mph - N/A   Haze
12:53 PM 55.0°F 48.9°F 80% 30.35 in 1.5 miles NNE 3.5 mph - N/A   Haze
1:23 PM 55.4°F 48.2°F 77% 30.33 in 2.5 miles North 4.6 mph - N/A   Haze
1:38 PM 53.6°F 48.2°F 82% 30.34 in 3.0 miles North 4.6 mph - N/A   Haze
1:53 PM 55.0°F 48.9°F 80% 30.33 in 3.0 miles North 5.8 mph - N/A   Haze
2:28 PM 55.4°F 48.2°F 77% 30.34 in 2.5 miles NW 5.8 mph - N/A   Haze
2:53 PM 55.9°F 48.9°F 77% 30.34 in 2.5 miles Calm Calm - N/A   Haze
3:11 PM 55.4°F 48.2°F 77% 30.33 in 3.0 miles Calm Calm - N/A   Haze
3:44 PM 53.6°F 48.2°F 82% 30.32 in 2.0 miles NW 3.5 mph - N/A   Haze
3:53 PM 53.1°F 48.0°F 83% 30.32 in 2.0 miles NNW 3.5 mph - N/A   Haze
4:00 PM 53.6°F 48.2°F 82% 30.31 in 1.8 miles NW 3.5 mph - N/A   Haze
4:53 PM 51.1°F 48.0°F 89% 30.32 in 1.2 miles NW 5.8 mph - N/A   Clear
5:02 PM 50.0°F 48.2°F 94% 30.30 in 2.0 miles NNW 4.6 mph - N/A   Clear
5:53 PM 48.9°F 46.9°F 93% 30.28 in 2.5 miles NNE 5.8 mph - N/A   Mostly Cloudy
6:17 PM 50.0°F 46.4°F 87% 30.27 in 1.8 miles North 4.6 mph - N/A   Overcast
6:28 PM 50.0°F 46.4°F 87% 30.27 in 2.0 miles North 3.5 mph - N/A   Overcast
6:53 PM 48.9°F 46.9°F 93% 30.25 in 2.0 miles NE 3.5 mph - N/A   Overcast
7:14 PM 48.2°F 46.4°F 93% 30.23 in 3.0 miles East 4.6 mph - N/A   Mostly Cloudy
7:53 PM 48.0°F 45.0°F 89% 30.22 in 4.0 miles ENE 4.6 mph - N/A   Partly Cloudy
8:53 PM 46.9°F 44.1°F 90% 30.21 in 4.0 miles NNE 3.5 mph - N/A   Partly Cloudy
9:53 PM 46.0°F 43.0°F 89% 30.19 in 4.0 miles Calm Calm - N/A   Clear
10:14 PM 44.6°F 42.8°F 93% 30.18 in 1.5 miles Calm Calm - N/A   Clear
10:17 PM 44.6°F 42.8°F 93% 30.18 in 1.0 miles Calm Calm - N/A   Mist
10:24 PM 44.6°F 42.8°F 93% 30.18 in 0.8 miles Calm Calm - N/A   Partly Cloudy
10:31 PM 44.6°F 42.8°F 93% 30.18 in 1.5 miles Calm Calm - N/A   Mostly Cloudy
10:34 PM 44.6°F 42.8°F 93% 30.17 in 3.0 miles Calm Calm - N/A   Mostly Cloudy
10:53 PM 45.0°F 43.0°F 93% 30.17 in 4.0 miles Calm Calm - N/A   Overcast
11:53 PM 46.0°F 43.0°F 89% 30.15 in 5.0 miles Calm Calm - N/A   Overcast
Moon Phase
Nov. 05 Nov. 06 Nov. 13 Nov. 20 Nov. 28
Sunrise:07:10 AM (PST) Moon Rise:10:37 PM (PST)11/5
Sunset:04:52 PM (PST) Moon Set:12:33 PM (PST)11/5

Copyright © 2014 The Weather Underground, Inc.